Total_Precipitation_Accumulation
1.68 2.06 2.63 3.50 4.57 5.48 5.77 5.25 4.72 4.36 3.92 3.48 2.92 2.53 2.44 2.32 2.07 1.80 1.51 1.36 1.27 1.31 1.32 1.16 1.22 1.12 1.14 1.17 1.17 1.24 1.27 1.23 1.31 1.50 1.51 1.29 1.12 1.12 1.10 1.14 1.29 1.21 1.22
1.86 2.52 3.50 4.13 4.39 4.53 4.29 3.95 3.68 3.45 2.99 2.58 2.31 2.06 2.00 1.83 1.66 1.56 1.48 1.19 1.07 1.08 1.02 1.10 1.08 1.03 1.13 1.16 1.14 1.14 1.13 1.09 1.14 1.31 1.50 1.33 1.22 1.01 0.80 0.95 0.96 1.01 1.25
2.03 2.82 3.37 3.50 3.23 2.93 2.83 2.78 2.83 2.58 2.43 2.35 2.23 2.12 2.06 1.83 1.59 1.46 1.37 1.12 0.97 0.96 0.95 0.92 0.97 1.04 1.00 1.11 1.13 1.04 1.05 1.09 1.06 1.07 1.32 1.37 1.27 1.06 0.80 0.75 0.83 0.95 1.09
1.54 1.96 2.20 2.09 2.21 2.35 2.36 2.46 2.55 2.30 2.27 2.20 1.88 1.76 1.64 1.50 1.34 1.27 1.26 1.30 1.11 0.97 0.90 0.84 0.84 0.90 0.89 1.06 0.92 0.96 1.03 1.08 0.98 0.93 0.93 1.04 1.11 1.16 1.00 0.81 0.75 0.86 0.95
0.94 1.04 1.17 1.31 1.52 1.63 1.79 2.09 2.33 2.28 2.11 1.93 1.81 1.80 1.66 1.59 1.54 1.55 1.49 1.44 1.33 1.12 0.97 0.94 0.87 0.87 0.84 0.90 0.89 1.09 1.07 1.00 0.94 0.92 0.93 0.98 0.95 0.92 0.97 0.90 0.80 0.79 0.70
0.80 0.83 0.88 1.01 1.18 1.31 1.47 1.71 2.02 2.15 2.07 1.91 1.79 1.74 1.73 1.66 1.56 1.54 1.47 1.32 1.24 1.18 1.06 1.02 1.00 0.92 0.88 0.86 0.85 0.99 1.04 1.06 1.06 1.00 0.93 0.98 0.94 0.91 0.99 0.86 0.73 0.70 0.54
0.80 0.87 0.82 0.80 0.86 1.01 1.16 1.24 1.41 1.66 1.78 1.75 1.70 1.66 1.73 1.60 1.41 1.33 1.24 1.18 1.04 0.96 0.95 0.94 0.95 0.84 0.86 0.94 1.02 1.01 1.00 1.04 1.07 1.01 0.94 0.90 0.82 0.89 0.92 0.84 0.70 0.71 0.59
0.63 0.69 0.69 0.65 0.63 0.71 0.89 1.00 1.18 1.35 1.54 1.54 1.51 1.48 1.52 1.45 1.35 1.34 1.12 1.02 0.98 0.93 0.95 0.96 0.89 0.84 0.88 0.90 1.06 0.94 0.91 0.95 0.96 0.86 1.03 0.99 0.80 0.90 0.94 0.97 1.06 0.96 0.87
0.43 0.53 0.60 0.67 0.65 0.64 0.74 0.86 1.05 1.23 1.40 1.51 1.53 1.45 1.44 1.44 1.41 1.34 1.17 1.02 1.08 1.03 1.09 1.04 0.96 0.95 1.00 1.03 1.10 0.98 0.95 1.02 0.95 0.94 1.10 1.07 0.96 0.99 0.97 1.06 1.22 1.29 1.13
0.35 0.47 0.59 0.63 0.55 0.48 0.54 0.69 0.85 1.07 1.22 1.38 1.41 1.31 1.46 1.44 1.42 1.35 1.22 1.09 1.04 1.03 1.11 1.09 1.00 0.98 1.01 1.05 1.11 1.01 1.03 1.05 1.03 1.09 1.21 1.20 1.13 1.14 1.11 1.11 1.21 1.39 1.38
0.32 0.40 0.49 0.52 0.48 0.40 0.42 0.50 0.67 0.84 0.95 1.06 1.17 1.17 1.24 1.23 1.23 1.25 1.23 1.17 1.12 1.09 1.08 1.07 1.05 1.01 1.04 1.09 1.14 1.10 1.10 1.07 1.11 1.12 1.15 1.14 1.22 1.28 1.27 1.34 1.36 1.40 1.53
0.42 0.37 0.34 0.43 0.53 0.48 0.37 0.43 0.57 0.69 0.76 0.84 0.88 0.93 1.01 1.06 1.04 1.05 1.12 1.19 1.13 1.05 1.08 1.09 1.04 0.94 0.99 1.12 1.16 1.11 1.14 1.15 1.12 1.16 1.25 1.19 1.21 1.31 1.36 1.50 1.49 1.53 1.74
0.31 0.29 0.30 0.37 0.50 0.47 0.38 0.47 0.55 0.60 0.68 0.70 0.75 0.83 0.88 0.90 0.89 0.92 1.02 1.12 1.15 1.15 1.10 1.08 0.99 0.95 0.97 1.03 1.08 1.14 1.23 1.27 1.27 1.31 1.36 1.35 1.45 1.44 1.47 1.53 1.53 1.60 1.80
0.27 0.23 0.27 0.36 0.45 0.44 0.39 0.42 0.52 0.67 0.73 0.74 0.86 0.96 0.99 0.97 0.97 0.96 1.02 1.11 1.19 1.20 1.23 1.23 1.24 1.23 1.17 1.13 1.15 1.22 1.26 1.29 1.34 1.42 1.42 1.44 1.52 1.59 1.65 1.66 1.76 1.88 2.05
0.30 0.28 0.31 0.45 0.51 0.55 0.54 0.53 0.58 0.72 0.86 0.95 1.05 1.20 1.32 1.33 1.22 1.17 1.22 1.29 1.36 1.42 1.56 1.55 1.51 1.51 1.44 1.29 1.33 1.35 1.31 1.41 1.35 1.39 1.42 1.38 1.43 1.50 1.61 1.63 1.78 1.99 2.19
0.35 0.33 0.41 0.53 0.53 0.50 0.52 0.53 0.58 0.65 0.69 0.78 0.88 1.05 1.22 1.31 1.27 1.25 1.35 1.46 1.53 1.65 1.71 1.65 1.60 1.58 1.38 1.47 1.51 1.47 1.54 1.57 1.52 1.51 1.53 1.46 1.40 1.38 1.43 1.51 1.63 1.78 1.98
0.34 0.36 0.40 0.46 0.54 0.47 0.44 0.49 0.54 0.63 0.74 0.86 0.97 1.04 1.16 1.27 1.30 1.31 1.41 1.51 1.54 1.56 1.62 1.61 1.56 1.46 1.43 1.40 1.30 1.31 1.32 1.44 1.50 1.51 1.51 1.37 1.23 1.27 1.21 1.30 1.35 1.38 1.48
0.50 0.54 0.62 0.64 0.62 0.56 0.56 0.64 0.68 0.74 0.81 0.88 0.97 1.03 1.14 1.26 1.38 1.53 1.62 1.68 1.73 1.74 1.73 1.66 1.61 1.59 1.51 1.37 1.23 1.23 1.17 1.24 1.29 1.32 1.34 1.33 1.23 1.20 1.23 1.23 1.17 1.08 1.08
0.53 0.62 0.70 0.76 0.68 0.70 0.72 0.80 0.85 0.95 1.00 1.01 1.09 1.16 1.23 1.37 1.46 1.54 1.67 1.77 1.84 1.82 1.81 1.80 1.82 1.84 1.81 1.67 1.40 1.29 1.26 1.35 1.35 1.33 1.32 1.34 1.24 1.25 1.15 1.12 1.09 1.02 0.97
0.64 0.70 0.72 0.74 0.82 0.85 0.89 0.95 1.02 1.13 1.19 1.18 1.22 1.27 1.41 1.49 1.50 1.51 1.58 1.63 1.68 1.71 1.74 1.71 1.78 1.78 1.80 1.82 1.50 1.27 1.16 1.24 1.27 1.33 1.34 1.37 1.27 1.30 1.22 1.22 1.23 1.13 1.02
0.79 0.77 0.78 0.84 0.87 0.86 0.89 0.99 1.11 1.21 1.27 1.28 1.28 1.34 1.42 1.57 1.60 1.62 1.57 1.51 1.52 1.55 1.61 1.64 1.70 1.74 1.75 1.70 1.36 1.23 1.18 1.27 1.30 1.27 1.24 1.27 1.25 1.11 1.02 0.98 1.01 1.03 1.01
0.90 0.89 0.87 0.86 0.87 0.91 0.97 1.04 1.15 1.20 1.20 1.19 1.22 1.28 1.33 1.32 1.34 1.47 1.52 1.51 1.50 1.52 1.58 1.66 1.68 1.67 1.64 1.53 1.25 1.01 0.99 1.08 1.13 1.14 1.13 1.15 1.10 0.95 0.84 0.75 0.74 0.76 0.74
0.83 0.86 0.89 0.92 0.94 0.97 1.04 1.16 1.20 1.21 1.19 1.25 1.35 1.41 1.42 1.41 1.40 1.41 1.42 1.39 1.35 1.29 1.30 1.43 1.50 1.52 1.55 1.47 1.21 0.97 0.87 0.90 0.92 1.01 1.17 1.16 1.02 0.94 0.87 0.80 0.72 0.65 0.61
0.84 0.86 0.88 0.93 1.03 1.11 1.19 1.19 1.15 1.21 1.35 1.41 1.38 1.36 1.38 1.34 1.32 1.37 1.34 1.29 1.25 1.21 1.18 1.32 1.46 1.53 1.55 1.46 1.26 1.08 0.97 0.97 0.97 1.01 1.15 1.20 1.17 1.09 1.01 0.90 0.73 0.59 0.58
0.80 0.81 0.87 0.95 1.04 1.08 1.15 1.23 1.24 1.27 1.34 1.29 1.19 1.21 1.23 1.17 1.09 1.16 1.22 1.13 1.12 1.14 1.15 1.30 1.52 1.56 1.47 1.35 1.18 1.04 1.04 1.04 1.10 1.13 1.27 1.39 1.40 1.37 1.26 1.10 0.93 0.81 0.76
0.76 0.82 0.85 0.93 1.01 1.05 1.08 1.09 1.12 1.19 1.25 1.25 1.15 1.06 1.03 1.02 1.04 1.08 1.11 1.08 0.94 0.93 0.89 0.96 1.09 1.21 1.16 1.06 0.95 0.88 0.87 0.85 0.87 0.93 1.14 1.40 1.48 1.49 1.47 1.36 1.17 1.02 0.94